Location: ????????
(41.2031°N, 22.5756°E)
Time: 05:08:32
(UTC+00:00)

Cosmos 1515 Rocket - Pass Details

Date: 01 December 2020
Orbit: 605 x 631 km, 82.5° (Epoch: 20 January)

Event Time Altitude Azimuth Distance (km) Brightness Sun altitude
Rises 15:35:34 0° 159° (SSE) 2,866 7.0 -6.6°
Reaches altitude 10° 15:37:59 10° 148° (SSE) 1,971 6.1 -7.0°
Maximum altitude 15:41:43 28° 89° (E) 1,166 4.5 -7.7°
Drops below altitude 10° 15:45:29 10° 31° (NNE) 1,998 5.7 -8.3°
Sets 15:47:57 0° 20° (NNE) 2,914 6.6 -8.7°
Enters shadow 15:48:03 - 20° (NNE) 2,947 6.6 -8.8°
